Starlink 4728

operational
NORAD ID: 53793 Int'l Des: 2022-111 Owner: SPXS Country: US Constellation: starlink
LEOCIRCULAR

Starlink 4728について

説明を読み込み中...

リアルタイム位置

3D地球を読み込み中...

次回通過

高度履歴

Altitude vs Time

uPlot chart will show altitude changes over time

軌道要素

1 53793U 22111W 25298.92209986 .00003029 00000-0 20831-3 0 9996
2 53793 53.2156 158.9148 0001740 91.7324 268.3867 15.08843759173343
Epoch: Oct 25, 2025 • Age: 10 hours

現在のステータス

高度 539.5 km
速度 7.60 km/s
衛星直下点 12.54°N, 166.6°E
打ち上げ日 Sep 11, 2022
運用期間 3.1 years
タイプ internet

技術仕様

分類 Payload
質量 305.00 kg
乾燥質量 290.00 kg
総質量 305.00 kg
長さ 0.20 m
直径 2.80 m
スパン 9.00 m
形状 Box + pan
製造者 SPXS
バスタイプ Starlink
フェーズステータス In Orbit
所有者/国 SPXS/US

大規模コンステレーション

Loading constellations...